This is the latest recevied weather packets stored in our database for station/object M0ADS. If no packets are shown the sender has not sent any weather packets the latest 10 day(s).
| Time | Temp. | Humidity | Pressure | Rain* | Wind** | Luminosity | Snow |
|---|---|---|---|---|---|---|---|
| 1777418227 | 5.56° C | 85% | 1029.4 hPa | 0 mm | - | - | - |
| 1777417328 | 5.56° C | 85% | 1029.3 hPa | 0 mm | - | - | - |
| 1777416424 | 6.11° C | 85% | 1029.2 hPa | 0 mm | - | - | - |
| 1777415524 | 6.11° C | 84% | 1029.2 hPa | 0 mm | - | - | - |
| 1777414622 | 6.11° C | 83% | 1029.2 hPa | 0 mm | - | - | - |
| 1777413722 | 6.11° C | 82% | 1029.1 hPa | 0 mm | - | - | - |
| 1777412822 | 6.67° C | 81% | 1029.1 hPa | 0 mm | - | - | - |
| 1777411920 | 6.67° C | 81% | 1029 hPa | 0 mm | - | - | - |
| 1777411020 | 7.22° C | 80% | 1029 hPa | 0 mm | - | - | - |
| 1777410121 | 7.22° C | 79% | 1029.1 hPa | 0 mm | - | - | - |
| 1777409219 | 7.78° C | 78% | 1029.1 hPa | 0 mm | - | - | - |
| 1777408318 | 7.78° C | 76% | 1029 hPa | 0 mm | - | - | - |
| 1777407418 | 7.78° C | 75% | 1028.7 hPa | 0 mm | - | - | - |
| 1777406518 | 8.33° C | 74% | 1028.6 hPa | 0 mm | - | - | - |
| 1777405618 | 8.33° C | 72% | 1028.5 hPa | 0 mm | - | - | - |
| 1777404718 | 8.89° C | 71% | 1028.4 hPa | 0 mm | - | - | - |
| 1777403818 | 9.44° C | 67% | 1028.3 hPa | 0 mm | - | - | - |
| 1777402916 | 9.44° C | 65% | 1028.1 hPa | 0 mm | - | - | - |
| 1777402015 | 10° C | 63% | 1028 hPa | 0 mm | - | - | - |
| 1777401115 | 10° C | 62% | 1027.9 hPa | 0 mm | - | - | - |
| 1777400215 | 10.56° C | 63% | 1027.8 hPa | 0 mm | - | - | - |
| 1777399316 | 10.56° C | 64% | 1027.8 hPa | 0 mm | - | - | - |
| 1777398415 | 11.11° C | 62% | 1027.8 hPa | 0 mm | - | - | - |
| 1777397516 | 11.67° C | 60% | 1027.7 hPa | 0 mm | - | - | - |
| 1777396616 | 11.67° C | 60% | 1027.7 hPa | 0 mm | - | - | - |
* Rain latest hour (hover to see other rain measurements)
** Current wind speed in m/s (hover to see current wind gust speed)